Regional Weather Roundup
Issued by NWS

Current Version | Previous Version | Text Only | Print | Product List | Glossary On
Versions: 1 2 3 4 5 6 7 8 9 10 11 12 13 14 15 16 17 18 19 20 21 22 23 24 25 26 27 28 29 30 31 32 33 34 35 36 37 38 39 40 41 42 43 44 45 46 47 48 49 50
000
ASUS44 KJAN 011310
RWRMS

MISSISSIPPI HOURLY WEATHER ROUNDUP
NATIONAL WEATHER SERVICE JACKSON MS
800 AM CDT MON SEP 01 2014

NOTE: "FAIR: INDICATES FEW OR NO CLOUDS BELOW 12,000 FEET WITH NO
SIGNIFICANT WEATHER AND/OR OBSTRUCTIONS TO VISIBILITY.

MSZ001>002-007>008-010>013-018>021-025>028-034>036-011400-
NORTHWEST MISSISSIPPI

CITY           SKY/WX    TMP DP  RH WIND       PRES   REMARKS
CLARKSDALE     FAIR      77  77 100 S3        30.05R
CLEVELAND      PTSUNNY   76  76  98 S6        30.04R
GREENWOOD      MOSUNNY   76  74  93 S6        30.05S
GREENVILLE     CLOUDY    77  74  90 S3        30.04R
GRENADA        PTSUNNY   73  73 100 S3        30.07R
OLIVE BRANCH   PTSUNNY   75  75 100 S7        30.07R
OXFORD         FAIR      73  72  94 SW6       30.10R
TUNICA         CLOUDY    77  73  88 SW3       30.06R
$$

MSZ003>006-009-014>017-022>024-029>033-037>039-011400-
NORTHEAST MISSISSIPPI

CITY           SKY/WX    TMP DP  RH WIND       PRES   REMARKS
BELMONT        FAIR      75  72  89 S6        30.09S
COLUMBUS AFB   SUNNY     75  75 100 S5        30.08F
CORINTH        FAIR      75  73  94 CALM      30.08R
GOLDN TRIANGLE SUNNY     75  72  88 S5        30.09S
STARKVILLE     FAIR      72  72 100 CALM      30.08S
TUPELO         SUNNY     75  72  90 SW6       30.07S
$$

MSZ040-058-011400-
CENTRAL MISSISSIPPI

CITY           SKY/WX    TMP DP  RH WIND       PRES   REMARKS
JACKSON INTL   PTSUNNY   76  75  97 SE6       30.07R
JACKSON HAWKNS MOSUNNY   78  74  87 SE6       30.07R
MERIDIAN KEY   PTSUNNY   76  73  91 CALM      30.09R
MERIDIAN NAS   PTSUNNY   75  73  93 SE3       30.10R
RAYMOND        FAIR      77  72  83 SE3       30.06R HAZE
VICKSBURG      MOSUNNY   77  75  93 SE5       30.04R
$$

MSZ059>079-011400-
SOUTH MISSISSIPPI

CITY           SKY/WX    TMP DP  RH WIND       PRES   REMARKS
BROOKHAVEN     FAIR      75  75 100 SE3       30.08S FOG
HATTIESBURG    FOG       73  73 100 CALM      30.08S VSB 1/4
MCCOMB         FOG       74  73  97 CALM      30.07R VSB 1/4
NATCHEZ        PTSUNNY   77  73  88 SE8       30.04S
PINE BELT      CLOUDY    73  72  94 CALM      30.09R
$$

MSZ080>082-011400-
COASTAL MISSISSIPPI

CITY           SKY/WX    TMP DP  RH WIND       PRES   REMARKS
BAY ST LOUIS   MOSUNNY  N/A N/A N/A CALM      30.06
BILOXI         MOSUNNY   84  75  75 S8        30.06S HX  92
PASCAGOULA     MOSUNNY   78  75  90 CALM      30.07R
GULFPORT       PTSUNNY   82  76  81 SE8       30.06R
$$



USA.gov is the U.S. government's official web portal to all federal, state and local government web resources and services.